RSQA2 Weather Reports


Display with metric or nautical units.
time (UTC)temp
F
wind
direction
speed
MPH
gust
MPH
rain 1hr
in
rain 24hr
in
rain mn
in
humidity
%
barometer
mb
20260506142824 35 193 2.0 3.0 0.00 0.08 0.00 88 1008.2
20260506141309 35 260 0.0 3.0 0.00 0.08 0.00 89 1008.1
20260506135827 35 226 0.0 3.0 0.00 0.08 0.00 89 1007.9
20260506134312 36 261 1.0 3.0 0.00 0.08 0.00 89 1007.8
20260506132811 36 261 0.0 3.0 0.00 0.08 0.00 89 1007.5
20260506131311 36 236 1.0 3.0 0.00 0.08 0.00 89 1007.4
20260506125812 36 281 1.0 4.0 0.00 0.08 0.00 89 1007.4
20260506124312 36 263 0.0 4.0 0.00 0.08 0.00 89 1007.2
20260506121321 37 271 2.0 5.0 0.00 0.08 0.00 90 1006.8
20260506115823 37 271 0.0 5.0 0.00 0.08 0.00 90 1006.7
20260506114323 37 264 0.0 5.0 0.00 0.08 0.00 90 1006.4
20260506112826 38 249 1.0 5.0 0.00 0.08 0.00 90 1006.3
20260506111327 38 210 0.0 2.0 0.00 0.08 0.00 91 1006.0
20260506105808 38 270 0.0 2.0 0.00 0.08 0.00 90 1006.1
20260506102817 38 269 0.0 0.0 0.00 0.08 0.00 90 1005.7
20260506101318 38 269 0.0 0.0 0.00 0.08 0.00 90 1005.5
20260506095820 38 270 0.0 0.0 0.00 0.08 0.00 90 1005.1
20260506094320 38 270 0.0 0.0 0.00 0.08 0.00 90 1005.1
20260506091327 39 270 0.0 1.0 0.00 0.08 0.00 89 1004.7
20260506085825 39 269 0.0 1.0 0.00 0.08 0.00 89 1004.5
20260506084310 40 294 0.0 6.0 0.01 0.08 0.00 89 1004.3
20260506082809 40 284 0.0 0.0 0.03 0.08 0.00 89 1004.2
20260506081313 40 284 0.0 2.0 0.03 0.08 0.00 88 1004.0
20260506072816 41 227 2.0 3.0 0.02 0.05 0.05 87 1004.0
20260506071320 41 294 2.0 4.0 0.03 0.05 0.05 86 1003.9
20260506061326 43 280 0.0 3.0 0.00 0.02 0.02 82 1003.3
20260506041328 44 273 1.0 7.0 0.00 0.02 0.02 78 1002.6
20260506035825 45 265 4.0 7.0 0.00 0.02 0.02 75 1002.5
20260506034310 45 207 2.0 6.0 0.00 0.02 0.02 76 1002.4
20260506032811 45 197 1.0 8.0 0.02 0.02 0.02 77 1002.0
20260506024324 47 219 3.0 5.0 0.02 0.02 0.02 80 1001.5
20260506022823 48 203 1.0 6.0 0.00 0.00 0.00 74 1001.3
20260506021322 50 275 1.0 4.0 0.00 0.00 0.00 67 1000.9
20260506012814 51 269 3.0 7.0 0.00 0.00 0.00 66 1000.6
20260506011315 51 269 1.0 8.0 0.00 0.00 0.00 66 1000.5
20260506005815 51 269 4.0 8.0 0.00 0.00 0.00 66 1000.5
20260506004316 51 274 3.0 8.0 0.00 0.00 0.00 65 1000.3
20260506001324 50 276 3.0 7.0 0.00 0.00 0.00 68 1000.2
20260505235827 50 334 3.0 8.0 0.00 0.00 0.00 67 1000.1
20260505234327 51 281 5.0 9.0 0.00 0.00 0.00 64 1000.0
20260505232810 52 238 6.0 9.0 0.00 0.00 0.00 64 999.9
20260505231310 52 264 3.0 6.0 0.00 0.00 0.00 64 999.8
20260505224314 52 209 3.0 8.0 0.00 0.00 0.00 65 999.6
20260505221323 51 254 3.0 6.0 0.00 0.00 0.00 69 999.3
20260505212814 51 192 3.0 6.0 0.00 0.00 0.00 71 999.0
20260505205818 49 292 1.0 4.0 0.00 0.00 0.00 74 998.9
20260505204324 49 211 1.0 6.0 0.00 0.00 0.00 74 998.7
20260505202822 48 202 1.0 4.0 0.00 0.00 0.00 75 998.5
20260505201327 47 188 0.0 5.0 0.00 0.00 0.00 76 998.3
20260505195824 46 259 0.0 3.0 0.00 0.00 0.00 76 998.2
20260505192813 46 182 0.0 2.0 0.00 0.00 0.00 75 998.1
20260505185818 45 182 0.0 4.0 0.00 0.00 0.00 77 997.8
20260505184319 45 179 0.0 2.0 0.00 0.00 0.00 78 998.1
20260505182823 44 211 1.0 3.0 0.00 0.00 0.00 78 998.1
20260505181324 43 211 0.0 0.0 0.00 0.00 0.00 79 998.0
20260505172816 44 211 1.0 4.0 0.00 0.00 0.00 77 997.7
20260505171317 45 109 0.0 4.0 0.00 0.00 0.00 78 997.6
20260505165819 44 298 0.0 1.0 0.00 0.00 0.00 80 997.3
20260505164319 43 298 0.0 0.0 0.00 0.00 0.00 82 997.2
20260505162821 41 298 0.0 1.0 0.00 0.00 0.00 83 997.1
20260505161322 41 298 0.0 2.0 0.00 0.00 0.00 83 997.3
20260505152824 39 171 0.0 1.0 0.00 0.00 0.00 87 996.9